Glendive, MT

11:59 AM MDT on September 28, 2016 (GMT -0600)
Dawson Community

Weather History for KGDV - January, 2012

Change the Weather History Date:

Sunday, January 8, 2012

  Actual Average Record
Temperature  
Mean Temperature 28 °F -  
Max Temperature 41 °F 21 °F 62 °F (2002)
Min Temperature 15 °F 4 °F -9 °F (1999)
Degree Days  
Heating Degree Days 37    
Moisture  
Dew Point 17 °F    
Average Humidity 62    
Maximum Humidity 93    
Minimum Humidity 41    
Precipitation  
Precipitation 0.00 in - - ()
Sea Level Pressure  
Sea Level Pressure 30.03 in    
Wind  
Wind Speed 8 mph (SW)    
Max Wind Speed 17 mph    
Max Gust Speed 20 mph    
Visibility 10 miles    
Events      
Averages and records for this station are not official NWS values.
T = Trace of Precipitation, MM = Missing Value Source: NWS Daily Summary

Daily Weather History Graph

Daily Weather History Graph

Search for Another Location

Airport or City:

Trip Planner

Search our weather history database for the weather conditions in past years. The results will help you decide how hot, cold, wet, or windy it might be!

Date:

Astronomy

Jan. 08, 2012 Rise Set
Actual Time 7:44 AM MST 4:27 PM MST
Civil Twilight 7:09 AM MST 5:02 PM MST
Nautical Twilight 6:31 AM MST 5:40 PM MST
Astronomical Twilight 5:54 AM MST 6:17 PM MST
Moon 4:14 PM MST (1/8) 7:04 AM MST (1/8)
Length of Visible Light 9h 52m
Length of Day
8h 42m
Full, 100% of the Moon is Illuminated
Jan 8
Full
Jan 9
Full
Jan 16
Last Quarter
Jan 23
New
Jan 30
First Quarter

Hourly Weather History & Observations

Time (MST) Temp. Windchill Dew Point Humidity Pressure Visibility Wind Dir Wind Speed Gust Speed Precip Events Conditions
12:15 AM 26.6 °F 19.1 °F 15.8 °F 64% 30.09 in 10.0 mi SSW 6.9 mph - N/A   Overcast
12:35 AM 24.8 °F - 15.8 °F 69% 30.09 in 10.0 mi Calm Calm - N/A   Overcast
12:55 AM 24.8 °F 16.1 °F 15.8 °F 69% 30.08 in 10.0 mi SSW 8.1 mph - N/A   Overcast
1:35 AM 23.0 °F 14.7 °F 15.8 °F 74% 30.08 in 10.0 mi West 6.9 mph - N/A   Overcast
1:55 AM 21.2 °F 16.4 °F 15.8 °F 80% 30.08 in 10.0 mi ESE 3.5 mph - N/A   Overcast
2:15 AM 21.2 °F 14.9 °F 14.0 °F 74% 30.08 in 10.0 mi East 4.6 mph - N/A   Scattered Clouds
2:35 AM 19.4 °F - 15.8 °F 86% 30.08 in 10.0 mi Calm Calm - N/A   Clear
2:55 AM 21.2 °F 16.4 °F 15.8 °F 80% 30.08 in 10.0 mi South 3.5 mph - N/A   Clear
3:15 AM 19.4 °F 14.3 °F 14.0 °F 80% 30.09 in 10.0 mi SSW 3.5 mph - N/A   Clear
3:35 AM 19.4 °F - 17.6 °F 93% 30.08 in 10.0 mi Calm Calm - N/A   Clear
3:55 AM 19.4 °F - 12.2 °F 74% 30.08 in 10.0 mi Calm Calm - N/A   Clear
4:15 AM 21.2 °F - 14.0 °F 74% 30.08 in 10.0 mi Calm Calm - N/A   Clear
4:55 AM 21.2 °F 13.6 °F 14.0 °F 74% 30.06 in 10.0 mi South 5.8 mph - N/A   Clear
5:15 AM 17.6 °F 8.2 °F 10.4 °F 73% 30.06 in 10.0 mi South 6.9 mph - N/A   Clear
5:35 AM 15.8 °F 10.2 °F 10.4 °F 79% 30.07 in 10.0 mi SSW 3.5 mph - N/A   Clear
5:55 AM 17.6 °F 10.7 °F 10.4 °F 73% 30.08 in 10.0 mi South 4.6 mph - N/A   Clear
6:15 AM 15.8 °F 7.2 °F 10.4 °F 79% 30.08 in 10.0 mi South 5.8 mph - N/A   Clear
6:35 AM 15.8 °F 8.6 °F 10.4 °F 79% 30.08 in 10.0 mi South 4.6 mph - N/A   Clear
6:55 AM 15.8 °F 5.1 °F 10.4 °F 79% 30.07 in 10.0 mi South 8.1 mph - N/A   Clear
7:15 AM 15.8 °F 3.4 °F 10.4 °F 79% 30.06 in 10.0 mi South 10.4 mph - N/A   Clear
7:35 AM 15.8 °F 3.4 °F 12.2 °F 86% 30.06 in 10.0 mi South 10.4 mph - N/A   Clear
7:55 AM 15.8 °F 4.2 °F 12.2 °F 86% 30.07 in 10.0 mi South 9.2 mph - N/A   Clear
8:35 AM 19.4 °F 9.5 °F 15.8 °F 86% 30.07 in 10.0 mi SSW 8.1 mph - N/A   Clear
8:55 AM 23.0 °F 13.1 °F 15.8 °F 74% 30.07 in 10.0 mi SSW 9.2 mph - N/A   Clear
9:15 AM 23.0 °F 13.1 °F 17.6 °F 80% 30.06 in 10.0 mi South 9.2 mph - N/A   Clear
9:35 AM 24.8 °F 16.9 °F 19.4 °F 80% 30.06 in 10.0 mi South 6.9 mph - N/A   Clear
9:55 AM 28.4 °F 18.0 °F 19.4 °F 69% 30.07 in 10.0 mi SSW 12.7 mph - N/A   Clear
10:15 AM 30.2 °F 19.8 °F 17.6 °F 60% 30.07 in 10.0 mi SSW 13.8 mph - N/A   Clear
10:35 AM 30.2 °F 19.8 °F 17.6 °F 60% 30.06 in 10.0 mi SSW 13.8 mph - N/A   Clear
10:55 AM 33.8 °F 23.5 °F 17.6 °F 52% 30.06 in 10.0 mi SSW 16.1 mph - N/A   Clear
11:15 AM 33.8 °F 24.8 °F 17.6 °F 52% 30.05 in 10.0 mi SSW 12.7 mph - N/A   Clear
11:35 AM 33.8 °F 25.8 °F 17.6 °F 52% 30.05 in 10.0 mi SSW 10.4 mph - N/A   Clear
11:55 AM 35.6 °F 26.2 °F 15.8 °F 44% 30.04 in 10.0 mi SW 15.0 mph 19.6 mph N/A   Clear
12:15 PM 35.6 °F 28.0 °F 17.6 °F 48% 30.02 in 10.0 mi SSW 10.4 mph - N/A   Clear
12:35 PM 37.4 °F 28.5 °F 17.6 °F 45% 30.01 in 10.0 mi SSW 15.0 mph 19.6 mph N/A   Clear
12:55 PM 35.6 °F 27.5 °F 17.6 °F 48% 30.01 in 10.0 mi SSW 11.5 mph - N/A   Clear
1:15 PM 37.4 °F 29.8 °F 17.6 °F 45% 29.99 in 10.0 mi SSW 11.5 mph - N/A   Clear
1:35 PM 37.4 °F 28.9 °F 17.6 °F 45% 29.98 in 10.0 mi SW 13.8 mph - N/A   Clear
1:55 PM 39.2 °F 31.6 °F 17.6 °F 42% 29.98 in 10.0 mi SW 12.7 mph - N/A   Partly Cloudy
2:15 PM 37.4 °F 28.9 °F 15.8 °F 41% 29.97 in 10.0 mi SW 13.8 mph - N/A   Partly Cloudy
2:35 PM 37.4 °F 28.9 °F 17.6 °F 45% 29.97 in 10.0 mi SSW 13.8 mph 17.3 mph N/A   Partly Cloudy
2:55 PM 37.4 °F 29.3 °F 17.6 °F 45% 29.97 in 10.0 mi SW 12.7 mph 16.1 mph N/A   Clear
3:15 PM 37.4 °F 29.3 °F 17.6 °F 45% 29.97 in 10.0 mi SW 12.7 mph - N/A   Clear
3:35 PM 37.4 °F 29.8 °F 17.6 °F 45% 29.98 in 10.0 mi SW 11.5 mph - N/A   Clear
3:55 PM 35.6 °F 27.5 °F 17.6 °F 48% 29.99 in 10.0 mi SW 11.5 mph - N/A   Clear
5:15 PM 35.6 °F 28.6 °F 17.6 °F 48% 29.97 in 10.0 mi WSW 9.2 mph - N/A   Clear
5:36 PM 35.6 °F 29.2 °F 17.6 °F 48% 29.97 in 10.0 mi WSW 8.1 mph - N/A   Clear
5:55 PM 33.8 °F 27.0 °F 17.6 °F 52% 29.97 in 10.0 mi WSW 8.1 mph - N/A   Clear
6:15 PM 35.6 °F 28.6 °F 19.4 °F 52% 29.97 in 10.0 mi WSW 9.2 mph - N/A   Clear
6:35 PM 37.4 °F 30.3 °F 21.2 °F 52% 29.97 in 10.0 mi West 10.4 mph - N/A   Clear
6:55 PM 37.4 °F 29.3 °F 21.2 °F 52% 29.97 in 10.0 mi West 12.7 mph - N/A   Clear
7:15 PM 39.2 °F 31.6 °F 21.2 °F 49% 29.97 in 10.0 mi West 12.7 mph - N/A   Clear
7:35 PM 37.4 °F 29.3 °F 21.2 °F 52% 29.97 in 10.0 mi West 12.7 mph - N/A   Clear
7:55 PM 37.4 °F 28.5 °F 23.0 °F 56% 29.97 in 10.0 mi West 15.0 mph - N/A   Clear
8:15 PM 39.2 °F 30.8 °F 23.0 °F 52% 29.97 in 10.0 mi West 15.0 mph - N/A   Clear
8:36 PM 39.2 °F 31.6 °F 23.0 °F 52% 29.97 in 10.0 mi West 12.7 mph - N/A   Clear
8:55 PM 41.0 °F 32.5 °F 24.8 °F 53% 29.97 in 10.0 mi West 17.3 mph - N/A   Clear
9:15 PM 39.2 °F 31.2 °F 24.8 °F 56% 29.97 in 10.0 mi WNW 13.8 mph - N/A   Clear
9:35 PM 39.2 °F 30.5 °F 24.8 °F 56% 29.97 in 10.0 mi West 16.1 mph - N/A   Clear
9:55 PM 39.2 °F 30.2 °F 24.8 °F 56% 29.97 in 10.0 mi West 17.3 mph - N/A   Clear
10:35 PM 37.4 °F 28.5 °F 24.8 °F 60% 29.98 in 10.0 mi West 15.0 mph - N/A   Clear
10:55 PM 37.4 °F 28.2 °F 24.8 °F 60% 29.98 in 10.0 mi West 16.1 mph - N/A   Clear
11:15 PM 37.4 °F 28.2 °F 24.8 °F 60% 29.98 in 10.0 mi West 16.1 mph - N/A   Clear
11:35 PM 39.2 °F 30.8 °F 24.8 °F 56% 29.98 in 10.0 mi WNW 15.0 mph - N/A   Clear
11:55 PM 39.2 °F 30.8 °F 24.8 °F 56% 29.98 in 10.0 mi West 15.0 mph - N/A   Clear